Погода в Троицком Сунгуре

Россия / Ульяновская область     53°17′14″N   47°37′21″E
темп.,
°C
ветер,
м/с
пор.,
м/с
влажн.,
%
обл.,
%
осадки,
мм/ч
давл.,
гПа
погр.,
м
16 июня, ср
ср1601:00+17в238072 0.0 100735
04:00+16всв228279 0.1 100716
07:00+19вюв25770 0.0 1006182
10:00+22ю34705 0.0 1006661
13:00+26ююз676141 0.1 10071502
16:00+24юз5671100 3.5 10071014
19:00+23зюз378191 1.1 1007350
22:00+19зсз411925 1.4 1009260
17 июня, чт
чт1701:00+18сз410969 0.0 1011357
04:00+17ссз5119543 0.0 1012426
07:00+17ссз512835 0.0 1014564
10:00+20с69544 0.0 10161061
13:00+22с68480 0.0 10171619
16:00+23ссз56500 0.0 10171764
19:00+19ссз610630 0.0 1019662
22:00+14ссз39760 0.0 1021185
18 июня, пт
пт1801:00+12ссз34850 0.0 102278
04:00+12с49815 0.0 1024227
07:00+14ссв410685 0.0 1025602
10:00+17ссв69480 0.0 10261374
13:00+19ссв67450 0.0 10261615
16:00+20ссв67468 0.0 10261624
19:00+18св47600 0.0 1026501
22:00+13св117960 0.0 102710
19 июня, сб
сб1901:00+12ссз227699 0.0 102811
04:00+11сз118291 0.0 102810
07:00+15сз12724 0.0 1029132
10:00+19з22574 0.0 1028611
13:00+23з33506 0.0 10271098
16:00+24зсз34508 0.0 10261205
19:00+23зсз35685 0.0 1025279
22:00+18зсз22861 0.0 102615
20 июня, вс
вс2001:00+17зсз22900 0.0 102612
04:00+16з22924 0.0 102612
07:00+19зсз23830 0.0 1026177
10:00+24сз33664 0.0 1026697
13:00+27зсз335416 0.0 10251653
16:00+28зсз445335 0.0 10241507
19:00+26сз237078 0.1 1023103
22:00+21ссв11810 0.1 102411